CW9688 Weather Reports


time (UTC)temp
F
wind
direction
speed
knots
gust
knots
rain 1hr
in
rain 24hr
in
rain mn
in
humidity
%
barometer
mb
20260902140804 66 183 2.6 6.1 0.00 0.00 0.00 57 1013.3
20260902140304 66 175 4.3 6.1 0.00 0.00 0.00 58 1013.3
20260902135805 65 175 2.6 5.2 0.00 0.00 0.00 59 1013.3
20260902134805 64 171 2.6 6.1 0.00 0.00 0.00 61 1013.3
20260902133304 63 170 3.5 6.1 0.00 0.00 0.00 63 1013.3
20260902132805 62 171 2.6 4.3 0.00 0.00 0.00 63 1013.3
20260902132307 62 169 1.7 5.2 0.00 0.00 0.00 63 1013.3
20260902131805 61 178 3.5 5.2 0.00 0.00 0.00 64 1013.3
20260902131305 61 186 2.6 5.2 0.00 0.00 0.00 64 1013.3
20260902130804 60 169 4.3 5.2 0.00 0.00 0.00 65 1013.3
20260902125805 58 172 1.7 4.3 0.00 0.00 0.00 68 1013.3
20260902123805 57 155 1.7 2.6 0.00 0.00 0.00 70 1013.3
20260902123304 57 155 1.7 2.6 0.00 0.00 0.00 72 1013.3
20260902122805 56 254 0.9 1.7 0.00 0.00 0.00 74 1013.3
20260902121804 56 254 0.9 1.7 0.00 0.00 0.00 75 1013.3
20260902121305 56 254 0.0 0.0 0.00 0.00 0.00 75 1013.3
20260902120804 56 254 0.0 0.0 0.00 0.00 0.00 74 1013.3
20260902115308 57 254 0.0 0.9 0.00 0.00 0.00 72 1013.3
20260902114805 58 254 0.0 0.9 0.00 0.00 0.00 72 1013.3
20260902113804 58 254 0.9 2.6 0.00 0.00 0.00 70 1013.3
20260902112805 58 254 0.0 0.0 0.00 0.00 0.00 69 1013.3
20260902112306 58 254 0.0 0.0 0.00 0.00 0.00 69 1013.3
20260902105805 58 254 0.0 1.7 0.00 0.00 0.00 69 1013.3
20260902105306 58 254 0.9 1.7 0.00 0.00 0.00 68 1013.3
20260902104805 58 254 0.0 0.9 0.00 0.00 0.00 67 1013.3
20260902103805 58 254 1.7 1.7 0.00 0.00 0.00 68 1013.3
20260902103305 58 254 0.9 1.7 0.00 0.00 0.00 67 1013.3
20260902102806 59 254 0.0 0.0 0.00 0.00 0.00 66 1013.3
20260902102307 59 254 0.9 1.7 0.00 0.00 0.00 67 1013.3
20260902101805 59 254 0.9 1.7 0.00 0.00 0.00 66 1013.3
20260902101304 59 254 0.0 0.9 0.00 0.00 0.00 65 1013.3
20260902094805 60 200 0.9 2.6 0.00 0.00 0.00 66 1013.3
20260902093305 61 200 0.0 2.6 0.00 0.00 0.00 61 1013.3
20260902092805 61 200 1.7 2.6 0.00 0.00 0.00 62 1013.3
20260902092305 62 200 2.6 2.6 0.00 0.00 0.00 63 1013.3
20260902091805 62 200 0.0 0.0 0.00 0.00 0.00 63 1013.3
20260902090305 62 200 1.7 2.6 0.00 0.00 0.00 61 1013.3
20260902085306 61 200 0.9 2.6 0.00 0.00 0.00 65 1013.3
20260902083305 62 200 0.9 1.7 0.00 0.00 0.00 62 1013.3
20260902082805 63 200 0.9 1.7 0.00 0.00 0.00 61 1013.3
20260902082309 63 200 0.0 0.9 0.00 0.00 0.00 60 1013.3
20260902073305 65 205 0.9 1.7 0.00 0.00 0.00 55 1013.3
20260902071804 65 281 1.7 4.3 0.00 0.00 0.00 57 1013.3
20260902070805 65 255 1.7 2.6 0.00 0.00 0.00 59 1013.3
20260902065805 64 302 0.9 1.7 0.00 0.00 0.00 61 1013.3
20260902065307 65 302 0.0 1.7 0.00 0.00 0.00 60 1013.3
20260902064305 66 244 0.9 1.7 0.00 0.00 0.00 59 1013.3
20260902060304 68 265 2.6 4.3 0.00 0.00 0.00 54 1013.3
20260902055804 69 272 3.5 7.0 0.00 0.00 0.00 54 1013.3
20260902055307 68 300 2.6 6.1 0.00 0.00 0.00 55 1013.3
20260902054804 68 303 2.6 6.1 0.00 0.00 0.00 55 1013.3
20260902054305 68 296 2.6 4.3 0.00 0.00 0.00 56 1013.3
20260902053805 67 340 1.7 4.3 0.00 0.00 0.00 57 1013.3
20260902053305 67 298 2.6 4.3 0.00 0.00 0.00 58 1013.3
20260902050805 70 319 0.9 5.2 0.00 0.00 0.00 54 1013.3
20260902050304 70 280 1.7 2.6 0.00 0.00 0.00 55 1013.3
20260902044304 70 12 0.9 2.6 0.00 0.00 0.00 55 1013.3
20260902043804 70 289 1.7 4.3 0.00 0.00 0.00 57 1013.3
20260902042805 69 32 2.6 4.3 0.00 0.00 0.00 57 1013.3
20260902042308 69 34 1.7 2.6 0.00 0.00 0.00 58 1013.3
20260902041805 69 49 1.7 2.6 0.00 0.00 0.00 58 1013.3
20260902041305 69 34 0.9 2.6 0.00 0.00 0.00 59 1013.3
20260902035805 69 51 1.7 2.6 0.00 0.00 0.00 59 1013.3
20260902034805 69 53 1.7 2.6 0.00 0.00 0.00 58 1013.3
20260902033805 69 29 0.9 1.7 0.00 0.00 0.00 56 1013.3
20260902033304 70 29 0.9 1.7 0.00 0.00 0.00 54 1013.3
20260902032306 71 15 0.9 1.7 0.00 0.00 0.00 53 1013.3
20260902030305 71 51 0.9 0.9 0.00 0.01 0.00 51 1013.3
20260902025804 72 51 0.0 0.9 0.00 0.02 0.00 49 1013.3
20260902025306 73 51 1.7 4.3 0.00 0.02 0.00 48 1013.3
20260902024805 73 43 1.7 2.6 0.00 0.02 0.00 47 1013.3
20260902023305 75 17 1.7 4.3 0.00 0.02 0.00 42 1013.3
20260902021804 76 52 4.3 8.7 0.00 0.02 0.00 42 1013.3
20260902021305 76 25 2.6 7.0 0.00 0.02 0.00 43 1013.3
20260902020804 76 15 5.2 7.0 0.00 0.02 0.00 45 1013.3
20260902020304 76 349 2.6 6.1 0.00 0.02 0.00 46 1013.3
20260902014305 76 350 5.2 7.8 0.00 0.02 0.00 52 1013.3
20260902013305 79 3 2.6 6.1 0.00 0.02 0.00 39 1013.3
20260902012804 79 335 1.7 2.6 0.00 0.02 0.00 38 1013.3
20260902012309 80 300 0.0 1.7 0.00 0.02 0.00 36 1013.3
20260902010306 80 19 0.0 2.6 0.00 0.07 0.00 37 1013.3
20260902005805 81 19 0.9 2.6 0.00 0.08 0.00 34 1013.3
20260902005306 81 98 0.0 1.7 0.00 0.08 0.00 35 1013.3
20260902003805 81 355 0.0 0.9 0.00 0.08 0.00 36 1013.3
20260902003305 81 355 0.0 1.7 0.00 0.08 0.00 36 1013.3
20260902002805 81 356 0.9 2.6 0.00 0.08 0.00 34 1013.3
20260902002306 81 11 0.0 0.9 0.00 0.08 0.00 34 1013.3
20260902001804 82 11 0.9 1.7 0.00 0.08 0.00 33 1013.3
20260902000305 82 31 1.7 2.6 0.00 0.08 0.00 32 1013.3
20260901234805 84 82 4.3 7.0 0.00 0.08 0.00 29 1013.3
20260901234305 84 60 2.6 5.2 0.00 0.08 0.00 30 1013.3
20260901233805 85 57 2.6 6.1 0.00 0.08 0.00 28 1013.3
20260901233305 85 62 2.6 7.8 0.00 0.08 0.00 29 1013.3
20260901232805 85 78 3.5 6.1 0.00 0.08 0.00 29 1013.3
20260901231304 87 282 0.9 4.3 0.00 0.08 0.00 28 1013.3
20260901230805 86 323 2.6 6.1 0.00 0.08 0.00 27 1013.3
20260901225804 88 14 2.6 5.2 0.00 0.08 0.00 26 1013.3
20260901224805 88 81 1.7 4.3 0.00 0.08 0.00 29 1013.3
20260901224304 88 91 2.6 10.4 0.00 0.08 0.00 26 1013.3
20260901221804 88 166 5.2 10.4 0.00 0.08 0.00 25 1013.3
20260901220304 85 108 10.4 22.6 0.00 0.08 0.00 30 1013.3
20260901215805 85 176 5.2 14.8 0.00 0.08 0.00 30 1013.3
20260901214804 84 230 4.3 7.0 0.00 0.08 0.00 30 1013.3
20260901214305 84 223 4.3 7.0 0.00 0.08 0.00 30 1013.3
20260901213305 85 256 2.6 7.0 0.00 0.08 0.00 28 1013.3
20260901212805 86 145 4.3 8.7 0.00 0.08 0.00 29 1013.3
20260901212306 85 172 5.2 7.8 0.00 0.08 0.00 30 1013.3
20260901211804 85 265 1.7 6.1 0.00 0.08 0.00 28 1013.3
20260901205306 89 94 4.3 8.7 0.00 0.08 0.00 28 1013.3
20260901204305 88 161 4.3 7.8 0.00 0.08 0.00 31 1013.3
20260901203804 87 170 5.2 7.8 0.00 0.08 0.00 28 1013.3
20260901203304 88 163 4.3 7.8 0.00 0.08 0.00 27 1013.3
20260901202306 89 155 6.1 10.4 0.00 0.08 0.00 28 1013.3
20260901201804 89 51 2.6 10.4 0.00 0.08 0.00 27 1013.3
20260901200805 88 137 4.3 10.4 0.00 0.08 0.00 29 1013.3
20260901200304 88 103 5.2 10.4 0.00 0.08 0.00 29 1013.3
20260901195306 88 103 7.8 10.4 0.00 0.08 0.00 28 1013.3
20260901194804 87 163 5.2 7.8 0.00 0.08 0.00 28 1013.3
20260901194305 88 119 5.2 10.4 0.00 0.08 0.00 29 1013.3
20260901192804 87 144 5.2 10.4 0.00 0.08 0.00 31 1013.3
20260901192306 86 150 6.1 10.4 0.00 0.08 0.00 32 1013.3
20260901190305 85 76 5.2 7.8 0.00 0.08 0.00 31 1013.3
20260901185805 85 168 5.2 10.4 0.00 0.08 0.00 34 1013.3
20260901185306 85 149 6.1 12.2 0.00 0.08 0.00 37 1013.3
20260901184805 84 119 5.2 10.4 0.00 0.08 0.00 37 1013.3
20260901183304 83 117 6.1 10.4 0.00 0.08 0.00 38 1013.3
20260901182804 84 130 2.6 12.2 0.00 0.08 0.00 39 1013.3
20260901181304 82 161 5.2 7.0 0.00 0.08 0.00 36 1013.3
20260901180804 81 148 5.2 10.4 0.00 0.08 0.00 40 1013.3
20260901175805 82 132 4.3 7.0 0.00 0.08 0.00 44 1013.3
20260901174305 81 99 2.6 5.2 0.00 0.08 0.00 47 1013.3
20260901173804 81 100 5.2 7.8 0.00 0.08 0.00 48 1013.3
20260901173304 79 149 5.2 10.4 0.00 0.08 0.00 48 1013.3
20260901172804 79 134 3.5 7.8 0.00 0.08 0.00 50 1013.3
20260901172305 79 175 4.3 8.7 0.00 0.08 0.00 49 1013.3
20260901170804 77 201 2.6 6.1 0.00 0.08 0.00 51 1013.3
20260901163304 74 160 4.3 7.0 0.00 0.08 0.00 62 1013.3
20260901162306 72 112 4.3 7.0 0.00 0.08 0.00 64 1013.3
20260901161804 72 169 4.3 8.7 0.00 0.08 0.00 70 1013.3
20260901160804 68 174 1.7 2.6 0.00 0.08 0.00 73 1013.3
20260901155306 67 179 0.0 2.6 0.00 0.08 0.00 74 1013.3
20260901154805 67 179 2.6 4.3 0.00 0.08 0.00 74 1013.3
20260901153804 68 170 3.5 4.3 0.00 0.08 0.00 75 1013.3
20260901153304 67 166 0.9 2.6 0.00 0.08 0.00 75 1013.3
20260901151804 67 32 0.0 0.0 0.00 0.08 0.00 76 1013.3
20260901151304 66 253 0.0 0.9 0.00 0.08 0.00 76 1013.3
20260901150804 66 0 0.0 0.0 0.00 0.08 0.00 76 1013.3
20260901145306 65 304 0.9 4.3 0.00 0.08 0.00 79 1013.3
20260901144305 65 226 0.0 1.7 0.00 0.08 0.00 80 1013.3
20260901143305 65 201 0.9 2.6 0.00 0.08 0.00 80 1013.3
20260901142306 64 232 0.9 2.6 0.00 0.08 0.00 81 1013.3
20260901141805 64 254 0.0 1.7 0.00 0.08 0.00 81 1013.3